{"data":{"norad_id":25118,"epoch":"2026-05-25T02:04:33.650112Z","epoch_age_seconds":74541,"freshness":"FRESH","line1":"1 25118U 97084G   26145.08650058  .00000774  00000+0  24784-3 0  9990","line2":"2 25118  45.0120 163.9149 0002273 258.1559 138.6072 14.47495036491041","mean_motion":14.47495036,"eccentricity":0.0002273,"inclination_deg":45.012,"raan_deg":163.9149,"arg_perigee_deg":258.1559,"mean_anomaly_deg":138.6072,"bstar":0.00024784,"rev_number":49104,"period_min":99.48220644537,"perigee_km":732.22523485858,"apogee_km":735.45834041544,"semimajor_km":7111.978787637,"source":"CELESTRAK","updated_at":"2026-05-25T13:38:22.861553Z"}}